FW0822 Weather Reports


time (UTC)temp
F
wind
direction
speed
knots
gust
knots
rain 1hr
in
rain 24hr
in
rain mn
in
humidity
%
barometer
mb
20260510190011 88 226 0.0 3.5 0.00 0.01 0.00 27 1015.6
20260510184507 88 217 0.0 0.0 0.00 0.01 0.00 29 1015.5
20260510183005 88 196 0.0 0.0 0.00 0.01 0.00 29 1015.8
20260510181502 86 232 0.0 0.0 0.00 0.01 0.00 32 1015.9
20260510180104 85 236 0.0 0.0 0.00 0.01 0.00 33 1016.1
20260510174606 84 237 0.0 0.9 0.00 0.01 0.00 31 1016.4
20260510173058 83 217 0.0 0.9 0.00 0.01 0.00 33 1016.4
20260510171550 82 213 0.0 0.0 0.00 0.01 0.00 37 1016.4
20260510170100 80 213 0.0 0.0 0.00 0.01 0.00 38 1016.5
20260510164542 78 219 0.0 0.0 0.00 0.01 0.00 38 1016.8
20260510163040 77 219 0.0 0.0 0.00 0.01 0.00 41 1016.9
20260510161537 76 219 0.0 0.0 0.00 0.01 0.00 43 1017.0
20260510160034 75 216 0.0 0.0 0.00 0.01 0.00 47 1016.9
20260510154548 73 216 0.0 0.0 0.00 0.01 0.00 52 1017.0
20260510153030 72 216 0.0 0.0 0.00 0.01 0.00 54 1017.0
20260510151525 71 216 0.0 0.0 0.00 0.01 0.00 56 1017.1
20260510150020 69 216 0.0 0.9 0.00 0.01 0.00 58 1017.2
20260510144532 67 215 0.0 0.0 0.00 0.01 0.00 69 1017.3
20260510143025 65 215 0.0 0.0 0.00 0.01 0.00 72 1017.2
20260510141610 64 215 0.0 0.0 0.00 0.01 0.00 80 1017.2
20260510140006 63 215 0.0 0.0 0.00 0.01 0.00 86 1017.1
20260510134502 62 215 0.0 0.0 0.00 0.01 0.00 90 1017.0
20260510133002 61 229 0.0 0.0 0.00 0.01 0.00 92 1017.0
20260510131600 61 228 0.0 0.0 0.00 0.01 0.00 93 1017.1
20260510130101 60 228 0.0 0.0 0.00 0.01 0.00 93 1017.1
20260510124612 60 228 0.0 0.0 0.00 0.01 0.00 93 1016.8
20260510123058 59 228 0.0 0.0 0.00 0.01 0.00 92 1016.7
20260510121556 58 228 0.0 0.0 0.00 0.01 0.00 92 1016.4
20260510120054 57 228 0.0 0.0 0.00 0.01 0.00 91 1016.2
20260510114552 56 228 0.0 0.0 0.00 0.01 0.00 89 1016.0
20260510113051 56 227 0.0 0.0 0.00 0.01 0.00 89 1015.8
20260510111549 56 228 0.0 0.0 0.00 0.01 0.00 89 1015.5
20260510110047 57 227 0.0 0.0 0.00 0.01 0.00 88 1015.3
20260510104547 57 227 0.0 0.0 0.00 0.01 0.00 88 1015.0
20260510103043 57 228 0.0 0.0 0.00 0.01 0.00 88 1014.8
20260510101542 58 228 0.0 0.0 0.00 0.01 0.00 88 1014.7
20260510100039 58 228 0.0 0.0 0.00 0.01 0.00 88 1014.4
20260510094548 58 228 0.0 0.0 0.00 0.01 0.00 88 1014.3
20260510093054 59 227 0.0 0.0 0.00 0.01 0.00 88 1014.3
20260510091543 59 227 0.0 0.0 0.00 0.01 0.00 88 1014.2
20260510090034 59 228 0.0 0.0 0.00 0.01 0.00 88 1014.0
20260510084533 60 228 0.0 0.0 0.00 0.01 0.00 88 1013.7
20260510083031 60 227 0.0 0.0 0.00 0.01 0.00 87 1013.9
20260510081529 60 228 0.0 0.0 0.00 0.01 0.00 87 1013.5
20260510080026 60 228 0.0 0.0 0.00 0.01 0.00 87 1013.4
20260510074526 60 228 0.0 0.0 0.00 0.01 0.00 86 1013.3
20260510073033 61 228 0.0 0.0 0.00 0.01 0.00 87 1013.3
20260510071524 61 228 0.0 0.0 0.00 0.01 0.00 86 1013.1
20260510070029 61 227 0.0 0.0 0.01 0.01 0.01 85 1013.1
20260510064522 62 228 0.0 0.0 0.01 0.01 0.01 85 1013.1
20260510063023 62 227 0.0 0.0 0.01 0.01 0.01 85 1013.1
20260510061521 62 228 0.0 0.0 0.01 0.01 0.01 84 1013.3
20260510060021 63 228 0.0 0.0 0.01 0.01 0.01 84 1013.4
20260510054521 63 227 0.0 0.0 0.00 0.00 0.00 83 1013.2
20260510053044 63 228 0.0 0.0 0.00 0.00 0.00 83 1013.5
20260510051522 63 227 0.0 0.0 0.00 0.00 0.00 83 1013.5
20260510050021 64 228 0.0 0.0 0.00 0.00 0.00 83 1013.5
20260510044521 64 228 0.0 0.0 0.00 0.00 0.00 83 1013.6
20260510043037 64 228 0.0 0.0 0.00 0.00 0.00 82 1013.6
20260510041526 64 228 0.0 0.0 0.00 0.00 0.00 81 1013.6
20260510040033 65 228 0.0 0.0 0.00 0.00 0.00 81 1013.4
20260510034520 65 227 0.0 0.0 0.00 0.00 0.00 80 1013.6
20260510033019 65 227 0.0 0.0 0.00 0.00 0.00 80 1013.6
20260510031523 65 228 0.0 0.0 0.00 0.00 0.00 80 1013.6
20260510030018 66 228 0.0 0.0 0.00 0.00 0.00 79 1013.4
20260510024618 66 228 0.0 0.0 0.00 0.00 0.00 79 1013.4
20260510023017 66 228 0.0 0.0 0.00 0.00 0.00 78 1013.4
20260510021535 67 228 0.0 0.0 0.00 0.00 0.00 78 1013.2
20260510020022 67 228 0.0 0.0 0.00 0.00 0.00 78 1013.1
20260510014523 67 227 0.0 0.0 0.00 0.00 0.00 77 1012.9
20260510013025 68 219 0.0 0.0 0.00 0.00 0.00 76 1012.6
20260510011516 68 219 0.0 0.0 0.00 0.00 0.00 74 1012.4
20260510010016 69 219 0.0 0.0 0.00 0.01 0.00 74 1012.1
20260510004518 69 219 0.0 0.0 0.00 0.01 0.00 73 1012.0
20260510003015 70 219 0.0 0.0 0.00 0.01 0.00 72 1011.7
20260510001515 70 219 0.0 0.0 0.00 0.01 0.00 72 1011.6
20260510000018 71 223 0.0 0.0 0.00 0.01 0.00 71 1011.4
20260509234514 71 223 0.0 0.0 0.00 0.01 0.00 71 1011.4
20260509233013 72 220 0.0 0.0 0.00 0.01 0.00 70 1011.1
20260509231515 72 213 0.0 0.0 0.00 0.01 0.00 69 1011.1
20260509230015 72 252 0.0 0.0 0.00 0.01 0.00 68 1011.0
20260509224513 72 280 0.0 0.0 0.00 0.01 0.00 67 1010.7
20260509223013 72 230 0.0 0.0 0.00 0.01 0.00 67 1010.8
20260509221514 72 215 0.0 3.5 0.00 0.01 0.00 68 1010.7
20260509220015 72 223 0.0 0.0 0.00 0.01 0.00 68 1010.8
20260509214508 72 224 0.0 0.0 0.00 0.01 0.00 70 1010.9
20260509213018 72 226 0.0 0.0 0.00 0.01 0.00 69 1010.7
20260509211508 72 244 0.0 0.9 0.00 0.01 0.00 69 1010.8
20260509210007 72 247 0.0 0.9 0.00 0.01 0.00 67 1010.6
20260509204506 72 259 0.0 2.6 0.00 0.01 0.00 66 1010.5
20260509203004 71 249 0.0 1.7 0.00 0.01 0.00 68 1010.8
20260509201500 71 225 0.0 5.2 0.00 0.01 0.00 68 1010.8
20260509200100 71 192 0.0 0.0 0.00 0.02 0.00 69 1010.8
20260509194558 71 235 0.0 0.0 0.00 0.02 0.00 70 1010.9
20260509193104 71 225 0.0 0.0 0.00 0.02 0.00 69 1011.2
20260509191607 71 206 0.0 0.0 0.00 0.02 0.00 70 1011.0